| time (UTC) | temp F | wind direction | speed knots | gust knots | rain 1hr in | rain 24hr in | rain mn in | humidity % | barometer mb |
| 20260507060053 | 46 | 0.0 | 0.0 | 0.00 | 0.00 | 0.00 | 87 | 1017.0 | |
| 20260507054603 | 45 | 0.0 | 0.0 | 0.00 | 0.00 | 0.00 | 88 | 1016.9 | |
| 20260507053056 | 44 | 0.0 | 0.0 | 0.00 | 0.00 | 0.00 | 89 | 1016.7 | |
| 20260507051558 | 43 | 0.0 | 0.0 | 0.00 | 0.00 | 0.00 | 90 | 1016.7 | |
| 20260507050057 | 42 | 0.0 | 0.0 | 0.00 | 0.00 | 0.00 | 91 | 1016.6 | |
| 20260507044600 | 41 | 0.0 | 0.0 | 0.00 | 0.00 | 0.00 | 91 | 1016.4 | |
| 20260507043052 | 41 | 0.0 | 0.0 | 0.00 | 0.00 | 0.00 | 90 | 1016.4 | |
| 20260507041601 | 41 | 0.0 | 0.0 | 0.00 | 0.00 | 0.00 | 90 | 1016.4 | |
| 20260507040105 | 40 | 0.0 | 0.0 | 0.00 | 0.00 | 0.00 | 90 | 1016.2 | |
| 20260507034559 | 40 | 0.0 | 0.0 | 0.00 | 0.00 | 0.00 | 90 | 1016.1 | |
| 20260507033051 | 40 | 0.0 | 0.0 | 0.00 | 0.00 | 0.00 | 90 | 1016.0 | |
| 20260507031557 | 39 | 0.0 | 0.0 | 0.00 | 0.00 | 0.00 | 90 | 1015.9 | |
| 20260507030056 | 39 | 0.0 | 0.0 | 0.00 | 0.00 | 0.00 | 89 | 1015.8 | |
| 20260507024550 | 39 | 0.0 | 0.0 | 0.00 | 0.00 | 0.00 | 89 | 1015.6 | |
| 20260507023048 | 40 | 0.0 | 0.0 | 0.00 | 0.00 | 0.00 | 89 | 1015.6 | |
| 20260507021549 | 40 | 0.0 | 0.0 | 0.00 | 0.00 | 0.00 | 89 | 1015.5 | |
| 20260507014600 | 40 | 0.0 | 0.0 | 0.00 | 0.00 | 0.00 | 89 | 1015.4 | |
| 20260507013050 | 40 | 0.0 | 0.0 | 0.00 | 0.00 | 0.00 | 89 | 1015.3 | |
| 20260507011602 | 41 | 0.0 | 0.0 | 0.00 | 0.00 | 0.00 | 88 | 1015.3 | |
| 20260507010055 | 41 | 0.0 | 0.0 | 0.00 | 0.00 | 0.00 | 88 | 1015.1 | |
| 20260507004556 | 41 | 0.0 | 0.0 | 0.00 | 0.00 | 0.00 | 87 | 1015.2 | |
| 20260507003056 | 42 | 0.0 | 0.0 | 0.00 | 0.00 | 0.00 | 87 | 1015.2 | |
| 20260507001613 | 42 | 0.0 | 0.0 | 0.00 | 0.00 | 0.00 | 86 | 1015.1 | |
| 20260507000059 | 42 | 0.0 | 0.0 | 0.00 | 0.00 | 0.00 | 86 | 1015.1 | |
| 20260506234602 | 42 | 0.0 | 0.0 | 0.00 | 0.00 | 0.00 | 86 | 1015.1 | |
| 20260506233053 | 43 | 0.0 | 0.0 | 0.00 | 0.00 | 0.00 | 86 | 1015.1 | |
| 20260506231550 | 43 | 0.0 | 0.0 | 0.00 | 0.00 | 0.00 | 86 | 1015.1 | |
| 20260506230053 | 43 | 0.0 | 0.0 | 0.00 | 0.00 | 0.00 | 85 | 1015.1 | |
| 20260506224552 | 43 | 0.0 | 0.0 | 0.00 | 0.00 | 0.00 | 85 | 1015.2 | |
| 20260506223049 | 43 | 0.0 | 0.0 | 0.00 | 0.00 | 0.00 | 84 | 1015.0 | |
| 20260506221555 | 44 | 0.0 | 0.0 | 0.00 | 0.00 | 0.00 | 84 | 1015.0 | |
| 20260506214552 | 45 | 0.0 | 0.0 | 0.00 | 0.00 | 0.00 | 82 | 1014.7 | |
| 20260506213100 | 45 | 0.0 | 0.0 | 0.00 | 0.00 | 0.00 | 82 | 1014.8 | |
| 20260506211552 | 45 | 0.0 | 0.0 | 0.00 | 0.00 | 0.00 | 81 | 1014.8 | |
| 20260506210100 | 45 | 0.0 | 0.0 | 0.00 | 0.00 | 0.00 | 80 | 1014.7 | |
| 20260506204553 | 46 | 0.0 | 0.0 | 0.00 | 0.00 | 0.00 | 80 | 1014.6 | |
| 20260506203139 | 46 | 0.0 | 0.0 | 0.00 | 0.00 | 0.00 | 79 | 1014.6 | |
| 20260506201552 | 46 | 0.0 | 0.0 | 0.00 | 0.00 | 0.00 | 78 | 1014.6 | |
| 20260506200053 | 46 | 0.0 | 0.0 | 0.00 | 0.00 | 0.00 | 77 | 1014.6 | |
| 20260506194555 | 47 | 0.0 | 0.0 | 0.00 | 0.00 | 0.00 | 76 | 1014.4 | |
| 20260506193052 | 47 | 0.0 | 0.0 | 0.00 | 0.00 | 0.00 | 75 | 1014.3 | |
| 20260506191559 | 48 | 0.0 | 0.0 | 0.00 | 0.00 | 0.00 | 73 | 1014.1 | |
| 20260506190056 | 48 | 0.0 | 0.0 | 0.00 | 0.00 | 0.00 | 71 | 1014.1 | |
| 20260506184559 | 49 | 0.0 | 0.0 | 0.00 | 0.00 | 0.00 | 71 | 1013.8 | |
| 20260506183058 | 50 | 0.0 | 0.0 | 0.00 | 0.00 | 0.00 | 71 | 1013.6 | |
| 20260506181556 | 50 | 0.0 | 0.0 | 0.00 | 0.00 | 0.00 | 69 | 1013.4 | |
| 20260506180055 | 51 | 0.0 | 0.0 | 0.00 | 0.00 | 0.00 | 68 | 1013.3 | |
| 20260506174605 | 52 | 0.0 | 0.0 | 0.00 | 0.00 | 0.00 | 65 | 1013.1 | |
| 20260506173058 | 52 | 0.0 | 0.0 | 0.00 | 0.00 | 0.00 | 62 | 1013.0 | |
| 20260506171602 | 53 | 0.0 | 0.0 | 0.00 | 0.00 | 0.00 | 60 | 1012.9 | |
| 20260506170100 | 54 | 0.0 | 0.0 | 0.00 | 0.00 | 0.00 | 56 | 1012.9 | |
| 20260506164559 | 55 | 0.0 | 0.0 | 0.00 | 0.00 | 0.00 | 43 | 1012.8 | |
| 20260506163116 | 55 | 0.0 | 0.0 | 0.00 | 0.00 | 0.00 | 43 | 1012.8 | |
| 20260506161552 | 55 | 0.0 | 0.0 | 0.00 | 0.00 | 0.00 | 42 | 1012.8 | |
| 20260506160054 | 56 | 0.0 | 0.0 | 0.00 | 0.00 | 0.00 | 43 | 1012.8 | |
| 20260506154555 | 56 | 0.0 | 0.0 | 0.00 | 0.00 | 0.00 | 41 | 1012.7 | |
| 20260506153114 | 56 | 0.0 | 0.0 | 0.00 | 0.00 | 0.00 | 40 | 1012.9 | |
| 20260506151555 | 56 | 0.0 | 0.0 | 0.00 | 0.00 | 0.00 | 41 | 1012.8 | |
| 20260506150055 | 56 | 0.0 | 0.0 | 0.00 | 0.00 | 0.00 | 40 | 1012.7 | |
| 20260506144555 | 57 | 0.0 | 0.0 | 0.00 | 0.00 | 0.00 | 39 | 1012.6 | |
| 20260506143053 | 57 | 0.0 | 0.0 | 0.00 | 0.00 | 0.00 | 42 | 1012.5 | |
| 20260506141554 | 57 | 0.0 | 0.0 | 0.00 | 0.00 | 0.00 | 43 | 1012.6 | |
| 20260506140053 | 57 | 0.0 | 0.0 | 0.00 | 0.00 | 0.00 | 45 | 1012.6 | |
| 20260506134557 | 57 | 0.0 | 0.0 | 0.00 | 0.00 | 0.00 | 49 | 1012.3 | |
| 20260506133053 | 57 | 0.0 | 0.0 | 0.00 | 0.00 | 0.00 | 54 | 1012.1 | |
| 20260506131551 | 57 | 0.0 | 0.0 | 0.00 | 0.00 | 0.00 | 53 | 1012.1 | |
| 20260506130050 | 56 | 0.0 | 0.0 | 0.00 | 0.00 | 0.00 | 56 | 1012.1 | |
| 20260506124555 | 57 | 0.0 | 0.0 | 0.00 | 0.00 | 0.00 | 55 | 1012.1 | |
| 20260506123107 | 58 | 0.0 | 0.0 | 0.00 | 0.00 | 0.00 | 58 | 1012.0 | |
| 20260506121608 | 56 | 0.0 | 0.0 | 0.00 | 0.00 | 0.00 | 63 | 1012.0 | |
| 20260506120059 | 55 | 0.0 | 0.0 | 0.00 | 0.00 | 0.00 | 67 | 1012.1 | |
| 20260506114559 | 56 | 0.0 | 0.0 | 0.00 | 0.00 | 0.00 | 68 | 1012.1 | |
| 20260506113056 | 55 | 0.0 | 0.0 | 0.00 | 0.00 | 0.00 | 70 | 1012.1 | |
| 20260506111555 | 54 | 0.0 | 0.0 | 0.00 | 0.00 | 0.00 | 70 | 1012.2 | |
| 20260506104550 | 54 | 0.0 | 0.0 | 0.00 | 0.00 | 0.00 | 65 | 1012.3 | |
| 20260506103049 | 54 | 0.0 | 0.0 | 0.00 | 0.00 | 0.00 | 65 | 1012.3 | |
| 20260506101609 | 54 | 0.0 | 0.0 | 0.00 | 0.00 | 0.00 | 63 | 1012.2 | |
| 20260506100101 | 54 | 0.0 | 0.0 | 0.00 | 0.00 | 0.00 | 61 | 1012.1 | |
| 20260506094553 | 55 | 0.0 | 0.0 | 0.00 | 0.00 | 0.00 | 60 | 1012.1 | |
| 20260506093058 | 55 | 0.0 | 0.0 | 0.00 | 0.00 | 0.00 | 61 | 1012.0 | |
| 20260506091549 | 55 | 0.0 | 0.0 | 0.00 | 0.00 | 0.00 | 56 | 1011.9 | |
| 20260506084618 | 56 | 0.0 | 0.0 | 0.00 | 0.00 | 0.00 | 54 | 1011.7 | |
| 20260506083053 | 54 | 0.0 | 0.0 | 0.00 | 0.00 | 0.00 | 55 | 1011.7 | |
| 20260506081603 | 53 | 0.0 | 0.0 | 0.00 | 0.00 | 0.00 | 56 | 1011.7 | |
| 20260506073054 | 52 | 0.0 | 0.0 | 0.00 | 0.00 | 0.00 | 54 | 1011.7 | |
| 20260506071552 | 53 | 0.0 | 0.0 | 0.00 | 0.00 | 0.00 | 54 | 1011.7 | |
| 20260506061556 | 48 | 0.0 | 0.0 | 0.00 | 0.00 | 0.00 | 57 | 1011.9 |